Location: General Nathan Twining Observatory
(34.5931°N, 106.8201°W)
Time: 00:41:05
(UTC-06:00)

ADEOS II - Visible Passes

Search period start: 31 August 2015 00:00
Search period end: 10 September 2015 00:00
Orbit: 800 x 803 km, 98.3° (Epoch: 30 August)

Date Brightness Start Highest point End Pass type
(mag) Time Alt. Az. Time Alt. Az. Time Alt. Az.
01 Sep 3.4 05:47:44 10° NNE 05:52:42 43° E 05:57:41 10° S visible
02 Sep 4.5 05:22:11 10° NE 05:26:16 23° E 05:30:30 10° SSE visible
03 Sep 5.0 04:57:43 10° ENE 04:59:43 12° E 05:02:03 10° ESE visible
04 Sep 2.5 06:08:32 10° NNE 06:13:48 71° ESE 06:19:02 10° S visible
05 Sep 3.6 05:42:37 10° NNE 05:47:29 38° E 05:52:22 10° SSE visible
06 Sep 4.6 05:17:11 10° NE 05:21:01 21° E 05:25:02 10° SE visible
07 Sep 5.2 04:53:14 10° ENE 04:54:26 11° E 04:56:02 10° ESE visible
08 Sep 2.6 06:03:22 10° NNE 06:08:35 64° E 06:13:48 10° S visible
09 Sep 3.8 05:37:30 10° NNE 05:42:14 34° E 05:47:02 10° SSE visible
